Find Starlink 36867

NORAD ID: 67983 Int'l Des: 2026-038 Owner: SPXS Country: US Constellation: starlink operational
LEOCIRCULARRETROGRADE

現在のビュー

3D地球を読み込み中...

About Starlink 36867

Starlink 36867 (NORAD 67983) is a starlink constellation satellite (v2 mini) launched Feb 25, 2026 by SPXS of US. It operates in LEO, CIRCULAR, RETROGRADE orbit with a mass of 575.00 kg.

Starlink 36867について

説明を読み込み中...

次回通過

Passes for default location (London). Set your location on the main map for personalized predictions.

高度履歴

Loading altitude history...

軌道要素

1 67983U 26038Y 26195.60220889 .00009863 00000-0 30742-3 0 9995
2 67983 97.2832 204.9887 0001459 102.5050 257.6356 15.33444738 22691
Epoch: Jul 14, 2026 • Age: 4 hours

現在のステータス

高度 467.5 km
遠地点 / 近地点 N/A
速度 7.63 km/s
衛星直下点 16.67°N, 179.72°W
打ち上げ日 Feb 25, 2026
運用期間 0.3 years
タイプ internet

技術仕様

分類 Payload
質量 575.00 kg
乾燥質量 530.00 kg
総質量 575.00 kg
長さ 0.30 m
直径 4.10 m
スパン 29.00 m
形状 Box + pan
製造者 SPXS
バスタイプ Starlink V2MO
フェーズステータス In Orbit
所有者/国 SPXS/US

Most Searched